Date String (YYYY-MM-DD hh:mm:ss) UTC,Instrument flags,absolute air pressure of the measurement (hPa),sample flow rate (lpm),inlet stack bypass flow (lpm),air temperature of the measurement (°C),ambient temperature measured by the external sensor (°C),aerosol sample conditioner tube jacket temperature (°C),OPC LED temperature (°C),internal box temperature (°C),relative humidity of the measurement (%),span deviation,mass concentration of particles derived from Lorenz-Mie calculation of OPC scattering (μg/m³),mass concentration of particles derived from Lorenz-Mie calculation of OPC scattering (μg/m³),mass concentration of particles derived from Lorenz-Mie calculation of OPC scattering (μg/m³)
DateTimeUTC,F1_M11,P_M11,Q1_M11,Q2_M11,T1_M11,T2_M11,T3_M11,T4_M11,T5_M11,U1_M11,ZSPAN_M11,X0_M11,X2_M11,X1_M11
2023-06-21 10:00:00,SystemResetWarning,0830.6,5.00,000.00,030.0,028.4,000.0,038.6,031.5,15.7,0000.0,0012.66,0004.73,0003.67
2023-06-21 10:01:00,SystemResetWarning,0830.6,4.99,000.00,030.0,028.4,000.0,038.6,031.5,16.4,0000.0,0012.65,0004.71,0003.65
2023-06-21 10:02:00,SystemResetWarning,0830.6,5.00,000.00,030.1,028.4,000.0,038.6,031.5,15.8,0000.0,0012.64,0004.66,0003.62
2023-06-21 10:03:00,SystemResetWarning,0830.6,5.00,000.00,030.1,028.4,000.0,038.6,031.5,15.7,0000.0,0012.68,0004.70,0003.61
2023-06-21 10:04:00,SystemResetWarning,0830.6,5.00,000.00,030.1,028.5,000.0,038.6,031.5,15.6,0000.0,0011.85,0004.70,0003.62
2023-06-21 10:05:00,SystemResetWarning,0830.6,5.00,000.00,030.1,028.5,000.0,038.6,031.5,15.7,0000.0,0011.37,0004.66,0003.61
2023-06-21 10:06:00,SystemResetWarning,0830.6,5.00,000.00,030.1,028.5,000.0,038.6,031.5,15.5,0000.0,0011.12,0004.60,0003.59
2023-06-21 10:07:00,SystemResetWarning,0830.6,5.00,000.00,030.1,028.5,000.0,038.6,031.5,15.3,0000.0,0010.95,0004.61,0003.58
2023-06-21 10:08:00,SystemResetWarning,0830.6,5.01,000.00,030.1,028.5,000.0,038.6,031.6,15.3,0000.0,0010.99,0004.57,0003.56
2023-06-21 10:09:00,SystemResetWarning,0830.6,5.00,000.00,030.1,028.5,000.0,038.7,031.6,15.4,0000.0,0011.21,0004.55,0003.54
2023-06-21 10:10:00,SystemResetWarning,0830.6,5.01,000.00,030.1,028.5,000.0,038.7,031.6,15.4,0000.0,0011.90,0004.54,0003.54
2023-06-21 10:11:00,SystemResetWarning,0830.6,5.00,000.00,030.1,028.5,000.0,038.7,031.6,15.5,0000.0,0011.85,0004.50,0003.54
2023-06-21 10:12:00,SystemResetWarning,0830.6,5.00,000.00,030.2,028.5,000.0,038.7,031.6,15.6,0000.0,0012.56,0004.43,0003.52
2023-06-21 10:13:00,SystemResetWarning,0830.6,5.00,000.00,030.2,028.5,000.0,038.7,031.6,15.5,0000.0,0013.11,0004.43,0003.52
2023-06-21 10:14:00,SystemResetWarning,0830.6,5.00,000.00,030.2,028.5,000.0,038.7,031.6,15.5,0000.0,0013.09,0004.36,0003.50
2023-06-21 10:15:00,SystemResetWarning,0830.6,5.00,000.00,030.2,028.6,000.0,038.7,031.6,15.4,0000.0,0012.75,0004.27,0003.47
2023-06-21 10:16:00,SystemResetWarning,0830.6,5.00,000.00,030.2,028.6,000.0,038.7,031.7,15.2,0000.0,0012.56,0004.24,0003.46
2023-06-21 10:17:00,SystemResetWarning,0830.5,5.00,000.00,030.2,028.6,000.0,038.7,031.7,15.1,0000.0,0013.06,0004.25,0003.46
2023-06-21 10:18:00,SystemResetWarning,0830.5,5.00,000.00,030.2,028.6,000.0,038.8,031.7,15.0,0000.0,0014.40,0004.22,0003.46
2023-06-21 10:19:00,SystemResetWarning,0830.6,5.00,000.00,030.2,028.6,000.0,038.8,031.7,15.1,0000.0,0014.46,0004.14,0003.45
2023-06-21 10:20:00,SystemResetWarning,0830.7,5.00,000.00,030.2,028.6,000.0,038.8,031.7,15.1,0000.0,0014.73,0004.17,0003.45
2023-06-21 10:21:00,SystemResetWarning,0830.5,5.00,000.00,030.2,028.6,000.0,038.8,031.7,15.3,0000.0,0013.73,0004.15,0003.45
2023-06-21 10:22:00,SystemResetWarning,0830.5,4.99,000.00,030.3,028.6,000.0,038.8,031.7,15.2,0000.0,0014.08,0004.16,0003.45
2023-06-21 10:23:00,SystemResetWarning,0830.5,5.00,000.00,030.3,028.6,000.0,038.8,031.7,15.1,0000.0,0013.37,0004.18,0003.45
2023-06-21 10:24:00,SystemResetWarning,0830.6,5.00,000.00,030.3,028.6,000.0,038.8,031.7,14.9,0000.0,0012.76,0004.20,0003.44
2023-06-21 10:25:00,SystemResetWarning,0830.6,5.00,000.00,030.3,028.6,000.0,038.8,031.7,14.8,0000.0,0014.03,0004.23,0003.46
2023-06-21 10:26:00,SystemResetWarning,0830.6,5.00,000.00,030.3,028.6,000.0,038.8,031.7,14.8,0000.0,0014.34,0004.24,0003.45
2023-06-21 10:27:00,SystemResetWarning,0830.6,5.00,000.00,030.3,028.6,000.0,038.8,031.7,14.8,0000.0,0015.03,0004.30,0003.45
2023-06-21 10:28:00,SystemResetWarning,0830.7,5.01,000.00,030.3,028.7,000.0,038.8,031.7,14.8,0000.0,0015.12,0004.29,0003.44
2023-06-21 10:29:00,SystemResetWarning,0830.7,5.01,000.00,030.3,028.7,000.0,038.9,031.7,15.0,0000.0,0013.79,0004.27,0003.43
2023-06-21 10:30:00,SystemResetWarning,0830.7,5.00,000.00,030.3,028.7,000.0,038.9,031.8,16.5,0000.0,0013.10,0004.31,0003.43
2023-06-21 10:31:00,SystemResetWarning,0830.8,4.99,000.00,030.3,028.7,000.0,038.9,031.8,15.8,0000.0,0012.09,0004.30,0003.43
2023-06-21 10:32:00,SystemResetWarning,0830.8,4.99,000.00,030.3,028.7,000.0,038.9,031.8,15.4,0000.0,0012.54,0004.35,0003.43
2023-06-21 10:33:00,SystemResetWarning,0830.8,5.01,000.00,030.4,028.8,000.0,038.9,031.8,15.4,0000.0,0012.23,0004.34,0003.43
2023-06-21 10:34:00,SystemResetWarning,0830.8,5.01,000.00,030.4,028.7,000.0,038.9,031.8,15.2,0000.0,0012.44,0004.33,0003.42
2023-06-21 10:35:00,SystemResetWarning,0830.8,5.01,000.00,030.4,028.8,000.0,038.9,031.9,15.4,0000.0,0012.69,0004.30,0003.42
2023-06-21 10:36:00,SystemResetWarning,0830.8,4.99,000.00,030.4,028.8,000.0,038.9,031.8,15.5,0000.0,0011.29,0004.26,0003.41
2023-06-21 10:37:00,SystemResetWarning,0830.8,4.99,000.00,030.4,028.8,000.0,038.9,031.9,15.4,0000.0,0011.32,0004.28,0003.40
2023-06-21 10:38:00,SystemResetWarning,0830.9,5.01,000.00,030.4,028.8,000.0,038.9,031.9,15.3,0000.0,0011.55,0004.22,0003.39
2023-06-21 10:39:00,SystemResetWarning,0830.8,5.00,000.00,030.4,028.8,000.0,039.0,031.9,15.2,0000.0,0011.32,0004.21,0003.40
2023-06-21 10:40:00,SystemResetWarning,0830.8,5.00,000.00,030.4,028.8,000.0,039.0,031.9,15.2,0000.0,0011.85,0004.23,0003.40
2023-06-21 10:41:00,SystemResetWarning,0830.8,5.00,000.00,030.4,028.8,000.0,039.0,031.9,15.1,0000.0,0011.78,0004.23,0003.40
2023-06-21 10:42:00,SystemResetWarning,0830.8,5.00,000.00,030.4,028.8,000.0,039.0,031.9,15.1,0000.0,0011.79,0004.26,0003.41
2023-06-21 10:43:00,SystemResetWarning,0830.9,4.99,000.00,030.5,028.8,000.0,039.0,031.9,15.1,0000.0,0011.73,0004.23,0003.41
2023-06-21 10:44:00,SystemResetWarning,0830.9,5.00,000.00,030.5,028.9,000.0,039.0,031.9,15.1,0000.0,0011.68,0004.22,0003.41
2023-06-21 10:45:00,SystemResetWarning,0830.9,5.00,000.00,030.5,028.9,000.0,039.0,031.9,15.2,0000.0,0011.78,0004.23,0003.41
2023-06-21 10:46:00,SystemResetWarning,0830.8,5.00,000.00,030.5,028.9,000.0,039.0,032.0,15.3,0000.0,0012.15,0004.21,0003.41
2023-06-21 10:47:00,SystemResetWarning,0830.9,5.00,000.00,030.5,028.9,000.0,039.0,032.0,15.3,0000.0,0011.99,0004.20,0003.40
2023-06-21 10:48:00,SystemResetWarning,0830.8,5.01,000.00,030.5,028.9,000.0,039.0,032.0,15.3,0000.0,0011.72,0004.17,0003.40
2023-06-21 10:49:00,SystemResetWarning,0830.9,5.01,000.00,030.5,028.9,000.0,039.1,031.9,15.4,0000.0,0012.03,0004.14,0003.40
2023-06-21 10:50:00,SystemResetWarning,0830.9,4.99,000.00,030.5,028.9,000.0,039.1,031.9,15.6,0000.0,0012.00,0004.18,0003.41
2023-06-21 10:51:00,SystemResetWarning,0830.9,4.99,000.00,030.5,028.9,000.0,039.1,031.9,15.8,0000.0,0011.27,0004.17,0003.40
2023-06-21 10:52:00,SystemResetWarning,0830.9,5.00,000.00,030.5,028.8,000.0,039.1,031.9,15.7,0000.0,0011.14,0004.18,0003.41
2023-06-21 10:53:00,SystemResetWarning,0830.9,5.01,000.00,030.5,028.8,000.0,039.1,031.9,15.7,0000.0,0011.74,0004.17,0003.42
2023-06-21 10:54:00,SystemResetWarning,0830.9,5.01,000.00,030.5,028.8,000.0,039.1,031.9,15.8,0000.0,0012.02,0004.20,0003.43
2023-06-21 10:55:00,SystemResetWarning,0830.9,5.00,000.00,030.5,028.6,000.0,039.1,032.0,15.7,0000.0,0011.56,0004.22,0003.46
2023-06-21 10:56:00,SystemResetWarning,0830.8,4.98,000.00,030.5,026.2,000.0,039.0,032.0,15.7,0000.0,0011.47,0004.27,0003.48
2023-06-21 10:57:00,SystemResetWarning,0830.8,5.01,000.00,030.5,024.9,000.0,038.9,031.8,15.9,0000.0,0011.05,0004.35,0003.50
2023-06-21 10:58:00,SystemResetWarning,0830.8,5.01,000.00,030.3,024.9,000.0,038.9,031.4,15.9,0000.0,0010.79,0004.39,0003.52
2023-06-21 10:59:00,SystemResetWarning,0830.8,5.00,000.00,030.2,025.3,000.0,038.9,031.2,15.9,0000.0,0011.39,0004.41,0003.55
